Denver, CO

6:34 AM MDT on May 27, 2017 (GMT -0600)
Denver International

Weather History for KDEN - September, 2013

Change the Weather History Date:

Monday, September 30, 2013

  Actual Average Record
Temperature  
Mean Temperature 67 °F 57 °F  
Max Temperature 82 °F 72 °F 90 °F (1980)
Min Temperature 51 °F 42 °F 25 °F (1985)
Degree Days  
Heating Degree Days 0 8  
Month to date heating degree days 83 123  
Since 1 July heating degree days 83 141  
Cooling Degree Days 2 1  
Month to date cooling degree days 133 76  
Year to date cooling degree days 999 764  
Growing Degree Days 16 (Base 50)    
Moisture  
Dew Point 38 °F    
Average Humidity 43    
Maximum Humidity 63    
Minimum Humidity 22    
Precipitation  
Precipitation 0.00 in 0.04 in 0.73 in (1904)
Month to date precipitation 5.61 0.96  
Year to date precipitation 16.36 12.32  
Snow  
Snow 0.00 in - - ()
Month to date snowfall 0  
Since 1 July snowfall 0  
Since 1 September snowfall 0  
Snow Depth 0.00 in    
Sea Level Pressure  
Sea Level Pressure 29.70 in    
Wind  
Wind Speed 7 mph (South)    
Max Wind Speed 17 mph    
Max Gust Speed 22 mph    
Visibility 10 miles    
Events      
T = Trace of Precipitation, MM = Missing Value Source: NWS Daily Summary

Daily Weather History Graph

Daily Weather History Graph

Search for Another Location

Airport or City:

Trip Planner

Search our weather history database for the weather conditions in past years. The results will help you decide how hot, cold, wet, or windy it might be!

Date:

Astronomy

Sep. 30, 2013 Rise Set
Actual Time 6:54 AM MDT 6:42 PM MDT
Civil Twilight 6:27 AM MDT 7:09 PM MDT
Nautical Twilight 5:55 AM MDT 7:40 PM MDT
Astronomical Twilight 5:24 AM MDT 8:11 PM MDT
Moon 2:33 AM MDT (9/30) 4:13 PM MDT (9/30)
Length of Visible Light 12h 41m
Length of Day
11h 47m
Waning Crescent, 18% of the Moon is Illuminated
Sep 30
Waning Crescent
Oct 4
New
Oct 11
First Quarter
Oct 18
Full
Oct 26
Last Quarter

Hourly Weather History & Observations

Time (MDT) Temp. Dew Point Humidity Pressure Visibility Wind Dir Wind Speed Gust Speed Precip Events Conditions
12:53 AM 60.1 °F 34.0 °F 38% 29.76 in 10.0 mi South 3.5 mph - N/A   Mostly Cloudy
1:53 AM 59.0 °F 33.1 °F 38% 29.75 in 10.0 mi Calm Calm - N/A   Mostly Cloudy
2:53 AM 57.9 °F 32.0 °F 37% 29.76 in 10.0 mi Calm Calm - N/A   Mostly Cloudy
3:53 AM 57.0 °F 33.1 °F 40% 29.76 in 10.0 mi South 3.5 mph - N/A   Overcast
4:53 AM 51.1 °F 39.9 °F 66% 29.78 in 10.0 mi SSE 11.5 mph - N/A   Overcast
5:53 AM 52.0 °F 37.9 °F 59% 29.78 in 10.0 mi SSE 12.7 mph - N/A   Mostly Cloudy
6:53 AM 55.9 °F 33.1 °F 42% 29.78 in 10.0 mi South 13.8 mph - N/A   Mostly Cloudy
7:53 AM 55.9 °F 36.0 °F 47% 29.78 in 10.0 mi SSW 12.7 mph - N/A   Mostly Cloudy
8:53 AM 66.0 °F 37.9 °F 36% 29.75 in 10.0 mi SSW 11.5 mph - N/A   Mostly Cloudy
9:53 AM 71.1 °F 37.9 °F 30% 29.73 in 10.0 mi SSW 5.8 mph - N/A   Mostly Cloudy
10:53 AM 73.9 °F 39.9 °F 29% 29.72 in 10.0 mi South 8.1 mph - N/A   Mostly Cloudy
11:53 AM 77.0 °F 41.0 °F 28% 29.68 in 10.0 mi South 11.5 mph 20.7 mph N/A   Mostly Cloudy
12:53 PM 79.0 °F 39.0 °F 24% 29.65 in 10.0 mi Calm Calm - N/A   Scattered Clouds
1:53 PM 82.0 °F 39.0 °F 22% 29.62 in 10.0 mi WNW 4.6 mph - N/A   Scattered Clouds
2:53 PM 80.1 °F 39.0 °F 23% 29.62 in 10.0 mi NNW 4.6 mph - N/A   Scattered Clouds
3:53 PM 80.1 °F 43.0 °F 27% 29.61 in 10.0 mi North 8.1 mph - N/A   Scattered Clouds
4:53 PM 80.1 °F 44.1 °F 28% 29.62 in 10.0 mi NNE 5.8 mph - N/A   Partly Cloudy
5:53 PM 73.9 °F 48.0 °F 40% 29.65 in 10.0 mi NE 8.1 mph - N/A   Scattered Clouds
6:53 PM 72.0 °F 41.0 °F 33% 29.65 in 10.0 mi ENE 6.9 mph - N/A   Scattered Clouds
7:53 PM 69.1 °F 42.1 °F 38% 29.67 in 10.0 mi East 6.9 mph - N/A   Scattered Clouds
8:53 PM 69.1 °F 37.9 °F 32% 29.66 in 10.0 mi ESE 4.6 mph - N/A   Partly Cloudy
9:53 PM 66.9 °F 39.0 °F 36% 29.69 in 10.0 mi NW 5.8 mph - N/A   Partly Cloudy
10:53 PM 69.1 °F 30.9 °F 24% 29.69 in 10.0 mi WNW 11.5 mph - N/A   Partly Cloudy
11:53 PM 62.1 °F 34.0 °F 35% 29.71 in 10.0 mi NW 8.1 mph - N/A   Partly Cloudy